Location: Devore Heights
(34.2372°N, 117.4156°W)
Time: 18:37:30
(UTC+00:00)

Vanguard 1 Rocket - Pass Details

Date: 14 September 2024
Orbit: 650 x 4218 km, 34.3° (Epoch: 04 October)

Event Time Altitude Azimuth Distance (km) Brightness Sun altitude
Rises 16:07:38 0° 284° (WNW) 7,364 11.5 30.7°
Reaches altitude 10° 16:12:01 10° 283° (WNW) 6,667 11.4 31.6°
Maximum altitude 16:36:42 76° 204° (SSW) 4,287 11.4 36.3°
Drops below altitude 10° 16:59:54 10° 122° (ESE) 6,330 12.9 40.6°
Sets 17:03:56 0° 121° (ESE) 6,997 12.8 41.3°
